AAL4781 KDCA-KCLT

Flight info

Callsign AAL4781
Flight time 1h 0m
Altitude 36000
Route KDCA/01 N0458F360 SCRAM6 GLANC DCT AIROW CHSLY6 KCLT/36R
Aircraft A321/M-VGDW/C

Departure

Time 2026-05-07 02:11
Airport Ronald Reagan Washington National Airport (KDCA)

Arrival

Time 2026-05-07 03:11
Airport Charlotte Douglas International Airport (KCLT)
Time Latitude Longitude Altitude Speed Heading
2026-05-07 01:51 38.85827 -77.04304 24 ft 0 kts 235°
2026-05-07 02:01 38.85837 -77.04286 24 ft 4 kts 237°
2026-05-07 02:02 38.85849 -77.04257 26 ft 4 kts 259°
2026-05-07 02:02 38.85847 -77.04226 26 ft 4 kts 306°
2026-05-07 02:02 38.85836 -77.04210 29 ft 0 kts 323°
2026-05-07 02:05 38.85836 -77.04211 29 ft 0 kts 323°
2026-05-07 02:05 38.85861 -77.04235 28 ft 7 kts 322°
2026-05-07 02:05 38.85903 -77.04246 24 ft 7 kts 37°
2026-05-07 02:06 38.85925 -77.04160 25 ft 14 kts 84°
2026-05-07 02:06 38.85933 -77.04023 24 ft 8 kts 86°
2026-05-07 02:06 38.85932 -77.04015 24 ft 3 kts 106°
2026-05-07 02:06 38.85867 -77.03989 25 ft 18 kts 176°
2026-05-07 02:07 38.85730 -77.03974 26 ft 22 kts 175°
2026-05-07 02:07 38.85375 -77.03939 24 ft 29 kts 175°
2026-05-07 02:07 38.85187 -77.03921 24 ft 28 kts 175°
2026-05-07 02:08 38.84987 -77.03904 24 ft 31 kts 175°
2026-05-07 02:08 38.84797 -77.03882 24 ft 26 kts 175°
2026-05-07 02:08 38.84634 -77.03864 25 ft 23 kts 175°
2026-05-07 02:08 38.84468 -77.03845 25 ft 24 kts 175°
2026-05-07 02:09 38.84369 -77.03838 25 ft 9 kts 177°
2026-05-07 02:09 38.84300 -77.03833 27 ft 11 kts 177°
2026-05-07 02:09 38.84231 -77.03803 24 ft 6 kts 134°
2026-05-07 02:09 38.84221 -77.03785 26 ft 0 kts 125°
2026-05-07 02:10 38.84220 -77.03784 26 ft 0 kts 125°
2026-05-07 02:10 38.84216 -77.03777 27 ft 3 kts 125°
2026-05-07 02:10 38.84198 -77.03712 24 ft 10 kts 66°
2026-05-07 02:11 38.84291 -77.03690 23 ft 28 kts 358°
2026-05-07 02:11 38.84760 -77.03736 25 ft 105 kts 355°
2026-05-07 02:11 38.85703 -77.03832 87 ft 158 kts 354°
2026-05-07 02:11 38.86793 -77.03978 726 ft 157 kts 342°
2026-05-07 02:12 38.87728 -77.04630 1545 ft 151 kts 322°
2026-05-07 02:12 38.88543 -77.05514 2145 ft 159 kts 320°
2026-05-07 02:12 38.89434 -77.06476 2457 ft 177 kts 321°
2026-05-07 02:12 38.90296 -77.07735 2674 ft 201 kts 300°
2026-05-07 02:13 38.90979 -77.09391 2870 ft 220 kts 298°
2026-05-07 02:13 38.91951 -77.11040 3074 ft 246 kts 322°
2026-05-07 02:13 38.93433 -77.12209 3705 ft 256 kts 328°
2026-05-07 02:13 38.94997 -77.13394 4447 ft 263 kts 325°
2026-05-07 02:14 38.96394 -77.14888 5102 ft 262 kts 300°
2026-05-07 02:14 38.97051 -77.17015 5872 ft 256 kts 277°
2026-05-07 02:14 38.97381 -77.19255 6775 ft 255 kts 277°
2026-05-07 02:14 38.97709 -77.21493 7621 ft 256 kts 277°
2026-05-07 02:15 38.98029 -77.23746 8446 ft 256 kts 273°
2026-05-07 02:15 38.97944 -77.26002 9284 ft 253 kts 255°
2026-05-07 02:15 38.97236 -77.28046 10069 ft 255 kts 236°
2026-05-07 02:15 38.95957 -77.29667 10807 ft 262 kts 218°
2026-05-07 02:16 38.94337 -77.30933 11132 ft 284 kts 216°
2026-05-07 02:16 38.92561 -77.32284 11323 ft 306 kts 215°
2026-05-07 02:16 38.90687 -77.33693 11836 ft 315 kts 215°
2026-05-07 02:16 38.88777 -77.35122 12506 ft 319 kts 215°
2026-05-07 02:17 38.86869 -77.36548 13138 ft 324 kts 215°
2026-05-07 02:17 38.84911 -77.38013 13814 ft 327 kts 215°
2026-05-07 02:17 38.82933 -77.39497 14446 ft 330 kts 216°
2026-05-07 02:17 38.80952 -77.40991 15125 ft 332 kts 216°
2026-05-07 02:18 38.78958 -77.42496 15799 ft 333 kts 216°
2026-05-07 02:18 38.76956 -77.44003 16476 ft 335 kts 217°
2026-05-07 02:18 38.74941 -77.45521 17140 ft 337 kts 217°
2026-05-07 02:18 38.72916 -77.47048 17803 ft 339 kts 217°
2026-05-07 02:19 38.70880 -77.48579 18419 ft 341 kts 217°
2026-05-07 02:19 38.68823 -77.50120 18994 ft 342 kts 218°
2026-05-07 02:19 38.66760 -77.51666 19498 ft 345 kts 218°
2026-05-07 02:19 38.64679 -77.53225 20026 ft 348 kts 218°
2026-05-07 02:20 38.62570 -77.54804 20589 ft 351 kts 219°
2026-05-07 02:20 38.60467 -77.56379 20835 ft 352 kts 219°
2026-05-07 02:20 38.58355 -77.57958 20892 ft 351 kts 219°
2026-05-07 02:20 38.56253 -77.59527 20932 ft 351 kts 219°
2026-05-07 02:21 38.54149 -77.61096 20915 ft 349 kts 219°
2026-05-07 02:21 38.52057 -77.62655 20914 ft 348 kts 219°
2026-05-07 02:21 38.49969 -77.64213 20914 ft 348 kts 219°
2026-05-07 02:21 38.47877 -77.65773 20912 ft 348 kts 219°
2026-05-07 02:22 38.45880 -77.67459 20891 ft 342 kts 226°
2026-05-07 02:22 38.44159 -77.69521 20906 ft 336 kts 234°
2026-05-07 02:22 38.42634 -77.71774 20909 ft 336 kts 234°
2026-05-07 02:22 38.41105 -77.74028 20904 ft 336 kts 234°
2026-05-07 02:23 38.39573 -77.76274 20906 ft 336 kts 234°
2026-05-07 02:23 38.38035 -77.78520 20902 ft 336 kts 234°
2026-05-07 02:23 38.36503 -77.80763 20901 ft 335 kts 235°
2026-05-07 02:23 38.35017 -77.83003 20910 ft 335 kts 236°
2026-05-07 02:24 38.33528 -77.85294 20889 ft 335 kts 236°
2026-05-07 02:24 38.32047 -77.87594 20893 ft 336 kts 236°
2026-05-07 02:24 38.30569 -77.89890 20893 ft 335 kts 236°
2026-05-07 02:24 38.29088 -77.92183 20895 ft 335 kts 236°
2026-05-07 02:25 38.27603 -77.94474 20897 ft 335 kts 236°
2026-05-07 02:25 38.26117 -77.96752 20889 ft 337 kts 236°
2026-05-07 02:25 38.24615 -77.99050 20895 ft 339 kts 236°
2026-05-07 02:25 38.23104 -78.01359 20898 ft 339 kts 236°
2026-05-07 02:26 38.21593 -78.03666 20899 ft 340 kts 236°
2026-05-07 02:26 38.20078 -78.05975 20896 ft 339 kts 236°
2026-05-07 02:26 38.18567 -78.08277 20894 ft 339 kts 236°
2026-05-07 02:26 38.17058 -78.10583 20887 ft 339 kts 236°
2026-05-07 02:27 38.15546 -78.12893 20887 ft 339 kts 236°
2026-05-07 02:27 38.14038 -78.15195 20887 ft 339 kts 236°
2026-05-07 02:27 38.12525 -78.17502 20886 ft 339 kts 236°
2026-05-07 02:27 38.11034 -78.19770 20885 ft 339 kts 236°
2026-05-07 02:28 38.09499 -78.22101 20886 ft 339 kts 236°
2026-05-07 02:28 38.08005 -78.24364 20886 ft 339 kts 236°
2026-05-07 02:28 38.06486 -78.26670 20868 ft 339 kts 236°
2026-05-07 02:28 38.04985 -78.28993 20880 ft 340 kts 237°
2026-05-07 02:29 38.03496 -78.31327 20885 ft 341 kts 237°
2026-05-07 02:29 38.02008 -78.33668 20887 ft 341 kts 237°
2026-05-07 02:29 38.00518 -78.36010 20886 ft 341 kts 237°
2026-05-07 02:29 37.99029 -78.38340 20886 ft 341 kts 237°
2026-05-07 02:30 37.97531 -78.40673 20887 ft 341 kts 237°
2026-05-07 02:30 37.96033 -78.42999 20882 ft 341 kts 237°
2026-05-07 02:30 37.94534 -78.45322 20882 ft 341 kts 236°
2026-05-07 02:30 37.93035 -78.47648 20881 ft 341 kts 237°
2026-05-07 02:31 37.91538 -78.49970 20885 ft 341 kts 237°
2026-05-07 02:31 37.90038 -78.52293 20884 ft 341 kts 236°
2026-05-07 02:31 37.88535 -78.54618 20883 ft 341 kts 236°
2026-05-07 02:31 37.87035 -78.56938 20884 ft 341 kts 236°
2026-05-07 02:32 37.85553 -78.59232 20884 ft 341 kts 237°
2026-05-07 02:32 37.84051 -78.61557 20884 ft 341 kts 236°
2026-05-07 02:32 37.82554 -78.63874 20888 ft 341 kts 236°
2026-05-07 02:32 37.81053 -78.66197 20888 ft 341 kts 236°
2026-05-07 02:33 37.79542 -78.68535 21358 ft 344 kts 236°
2026-05-07 02:33 37.78029 -78.70871 22028 ft 344 kts 236°
2026-05-07 02:33 37.76508 -78.73210 22597 ft 345 kts 236°
2026-05-07 02:33 37.74979 -78.75558 23111 ft 348 kts 236°
2026-05-07 02:34 37.73436 -78.77925 23622 ft 350 kts 236°
2026-05-07 02:34 37.71749 -78.80175 23829 ft 356 kts 229°
2026-05-07 02:34 37.69778 -78.82112 23886 ft 360 kts 224°
2026-05-07 02:34 37.67756 -78.83993 23897 ft 361 kts 224°
2026-05-07 02:35 37.65737 -78.85872 23871 ft 361 kts 224°
2026-05-07 02:35 37.63717 -78.87755 23891 ft 363 kts 224°
2026-05-07 02:35 37.61684 -78.89657 23912 ft 364 kts 224°
2026-05-07 02:35 37.59655 -78.91553 23899 ft 364 kts 224°
2026-05-07 02:36 37.57619 -78.93455 23913 ft 364 kts 224°
2026-05-07 02:36 37.55582 -78.95352 23918 ft 364 kts 224°
2026-05-07 02:36 37.53547 -78.97246 23914 ft 364 kts 224°
2026-05-07 02:36 37.51536 -78.99118 23917 ft 364 kts 224°
2026-05-07 02:37 37.49501 -79.01014 23912 ft 364 kts 224°
2026-05-07 02:37 37.47463 -79.02907 23915 ft 364 kts 224°
2026-05-07 02:37 37.45422 -79.04799 23923 ft 364 kts 224°
2026-05-07 02:37 37.43379 -79.06687 23925 ft 365 kts 223°
2026-05-07 02:38 37.41305 -79.08549 23925 ft 367 kts 223°
2026-05-07 02:38 37.39204 -79.10389 23925 ft 368 kts 222°
2026-05-07 02:38 37.37099 -79.12212 23925 ft 368 kts 222°
2026-05-07 02:38 37.34993 -79.14030 23925 ft 368 kts 222°
2026-05-07 02:39 37.32888 -79.15852 23925 ft 368 kts 222°
2026-05-07 02:39 37.30781 -79.17683 23924 ft 368 kts 222°
2026-05-07 02:39 37.29393 -79.18891 23924 ft 368 kts 222°
2026-05-07 02:39 37.27291 -79.20720 23925 ft 368 kts 222°
2026-05-07 02:40 37.25189 -79.22548 23923 ft 368 kts 222°
2026-05-07 02:40 37.23092 -79.24382 23923 ft 367 kts 223°
2026-05-07 02:40 37.21010 -79.26246 23913 ft 370 kts 223°
2026-05-07 02:40 37.18913 -79.28154 23927 ft 374 kts 223°
2026-05-07 02:41 37.16807 -79.30076 23931 ft 375 kts 223°
2026-05-07 02:41 37.14699 -79.31996 23928 ft 375 kts 223°
2026-05-07 02:41 37.12582 -79.33914 23928 ft 375 kts 223°
2026-05-07 02:41 37.10465 -79.35824 23927 ft 375 kts 223°
2026-05-07 02:42 37.08344 -79.37733 23930 ft 375 kts 223°
2026-05-07 02:42 37.06224 -79.39635 23928 ft 375 kts 223°
2026-05-07 02:42 37.04102 -79.41535 23928 ft 375 kts 223°
2026-05-07 02:42 37.01981 -79.43435 23935 ft 375 kts 223°
2026-05-07 02:43 36.99855 -79.45305 23905 ft 374 kts 222°
2026-05-07 02:43 36.97693 -79.47152 23924 ft 376 kts 221°
2026-05-07 02:43 36.95518 -79.48977 23928 ft 377 kts 221°
2026-05-07 02:43 36.93332 -79.50799 23928 ft 378 kts 221°
2026-05-07 02:44 36.91148 -79.52620 23931 ft 378 kts 221°
2026-05-07 02:44 36.88963 -79.54443 23930 ft 378 kts 221°
2026-05-07 02:44 36.86777 -79.56271 23932 ft 377 kts 221°
2026-05-07 02:44 36.84602 -79.58101 23932 ft 377 kts 221°
2026-05-07 02:45 36.82427 -79.59936 23933 ft 377 kts 221°
2026-05-07 02:45 36.80254 -79.61769 23931 ft 377 kts 221°
2026-05-07 02:45 36.78076 -79.63604 23906 ft 377 kts 221°
2026-05-07 02:45 36.75908 -79.65424 23931 ft 375 kts 222°
2026-05-07 02:46 36.73739 -79.67239 23936 ft 374 kts 222°
2026-05-07 02:46 36.71610 -79.69021 23951 ft 374 kts 222°
2026-05-07 02:46 36.69447 -79.70830 23955 ft 374 kts 221°
2026-05-07 02:46 36.67283 -79.72636 23960 ft 374 kts 221°
2026-05-07 02:47 36.65117 -79.74440 23963 ft 374 kts 221°
2026-05-07 02:47 36.62957 -79.76244 23967 ft 374 kts 221°
2026-05-07 02:47 36.60796 -79.78049 23968 ft 374 kts 222°
2026-05-07 02:47 36.58631 -79.79856 23986 ft 374 kts 222°
2026-05-07 02:48 36.56469 -79.81659 23974 ft 375 kts 222°
2026-05-07 02:48 36.54301 -79.83468 23952 ft 375 kts 222°
2026-05-07 02:48 36.52135 -79.85273 23970 ft 375 kts 222°
2026-05-07 02:48 36.49999 -79.87051 23971 ft 375 kts 222°
2026-05-07 02:49 36.47801 -79.88877 23972 ft 375 kts 221°
2026-05-07 02:49 36.45662 -79.90644 23967 ft 361 kts 222°
2026-05-07 02:49 36.43609 -79.92330 23970 ft 349 kts 222°
2026-05-07 02:49 36.41600 -79.93987 23974 ft 345 kts 222°
2026-05-07 02:50 36.39607 -79.95639 23972 ft 345 kts 222°
2026-05-07 02:50 36.37613 -79.97297 23968 ft 344 kts 223°
2026-05-07 02:50 36.35623 -79.98952 23965 ft 344 kts 223°
2026-05-07 02:50 36.33634 -80.00606 23963 ft 345 kts 223°
2026-05-07 02:51 36.31635 -80.02261 23750 ft 344 kts 223°
2026-05-07 02:51 36.29644 -80.03904 23527 ft 343 kts 223°
2026-05-07 02:51 36.27657 -80.05541 23252 ft 342 kts 222°
2026-05-07 02:51 36.25681 -80.07167 22984 ft 341 kts 222°
2026-05-07 02:52 36.23734 -80.08768 22726 ft 339 kts 222°
2026-05-07 02:52 36.21773 -80.10382 22466 ft 338 kts 222°
2026-05-07 02:52 36.19820 -80.11992 22207 ft 336 kts 223°
2026-05-07 02:52 36.17872 -80.13596 21950 ft 335 kts 222°
2026-05-07 02:53 36.15934 -80.15188 21684 ft 333 kts 222°
2026-05-07 02:53 36.14007 -80.16769 21467 ft 332 kts 222°
2026-05-07 02:53 36.12082 -80.18347 21212 ft 331 kts 222°
2026-05-07 02:53 36.10168 -80.19916 20957 ft 329 kts 222°
2026-05-07 02:54 36.08261 -80.21480 20680 ft 329 kts 222°
2026-05-07 02:54 36.06358 -80.23043 20436 ft 328 kts 222°
2026-05-07 02:54 36.04462 -80.24601 20194 ft 327 kts 222°
2026-05-07 02:54 36.02571 -80.26149 19954 ft 326 kts 222°
2026-05-07 02:55 36.00681 -80.27694 19720 ft 325 kts 222°
2026-05-07 02:55 35.98803 -80.29227 19485 ft 323 kts 221°
2026-05-07 02:55 35.96929 -80.30755 19250 ft 322 kts 221°
2026-05-07 02:55 35.95063 -80.32276 19009 ft 321 kts 221°
2026-05-07 02:56 35.93199 -80.33799 18776 ft 320 kts 221°
2026-05-07 02:56 35.91346 -80.35309 18543 ft 318 kts 221°
2026-05-07 02:56 35.89500 -80.36811 18313 ft 317 kts 221°
2026-05-07 02:56 35.87662 -80.38311 18083 ft 316 kts 221°
2026-05-07 02:57 35.85867 -80.39770 17874 ft 309 kts 221°
2026-05-07 02:57 35.84071 -80.41223 17608 ft 301 kts 221°
2026-05-07 02:57 35.82364 -80.42604 17356 ft 295 kts 221°
2026-05-07 02:57 35.80670 -80.44041 17099 ft 301 kts 225°
2026-05-07 02:58 35.79016 -80.45664 16423 ft 303 kts 225°
2026-05-07 02:58 35.77389 -80.47323 15336 ft 304 kts 225°
2026-05-07 02:58 35.75770 -80.48989 14359 ft 302 kts 221°
2026-05-07 02:58 35.73966 -80.50333 13407 ft 305 kts 208°
2026-05-07 02:59 35.71965 -80.51190 12410 ft 304 kts 202°
2026-05-07 02:59 35.69951 -80.51966 11482 ft 301 kts 202°
2026-05-07 02:59 35.67965 -80.52721 10619 ft 296 kts 202°
2026-05-07 02:59 35.65985 -80.53478 10169 ft 295 kts 202°
2026-05-07 03:00 35.64064 -80.54209 10048 ft 283 kts 202°
2026-05-07 03:00 35.62214 -80.54914 9847 ft 275 kts 202°
2026-05-07 03:00 35.60433 -80.55662 9611 ft 265 kts 211°
2026-05-07 03:00 35.59061 -80.57074 9224 ft 256 kts 236°
2026-05-07 03:01 35.58123 -80.58930 8829 ft 256 kts 241°
2026-05-07 03:01 35.57257 -80.60834 8459 ft 254 kts 242°
2026-05-07 03:01 35.56416 -80.62703 8119 ft 252 kts 242°
2026-05-07 03:01 35.55571 -80.64585 7782 ft 251 kts 242°
2026-05-07 03:02 35.54732 -80.66464 7433 ft 250 kts 242°
2026-05-07 03:02 35.53902 -80.68336 7092 ft 249 kts 242°
2026-05-07 03:02 35.53068 -80.70198 6768 ft 248 kts 242°
2026-05-07 03:02 35.52239 -80.72042 6428 ft 246 kts 242°
2026-05-07 03:03 35.51428 -80.73874 6217 ft 240 kts 242°
2026-05-07 03:03 35.50652 -80.75640 6087 ft 230 kts 242°
2026-05-07 03:03 35.49913 -80.77326 5960 ft 220 kts 242°
2026-05-07 03:03 35.49195 -80.78944 5848 ft 211 kts 242°
2026-05-07 03:04 35.48509 -80.80495 5638 ft 204 kts 242°
2026-05-07 03:04 35.47845 -80.82010 5363 ft 200 kts 242°
2026-05-07 03:04 35.47200 -80.83502 5145 ft 192 kts 242°
2026-05-07 03:04 35.46605 -80.84890 5015 ft 181 kts 242°
2026-05-07 03:05 35.46044 -80.86215 4906 ft 169 kts 242°
2026-05-07 03:05 35.45522 -80.87440 4707 ft 157 kts 242°
2026-05-07 03:05 35.45014 -80.88618 4256 ft 157 kts 242°
2026-05-07 03:05 35.44530 -80.89803 3992 ft 154 kts 251°
2026-05-07 03:06 35.44348 -80.91116 3991 ft 159 kts 261°
2026-05-07 03:06 35.44089 -80.92449 3984 ft 163 kts 238°
2026-05-07 03:06 35.43179 -80.93279 3988 ft 169 kts 207°
2026-05-07 03:06 35.42051 -80.93722 3979 ft 172 kts 203°
2026-05-07 03:07 35.40896 -80.94110 3973 ft 171 kts 202°
2026-05-07 03:07 35.39756 -80.94486 3964 ft 168 kts 202°
2026-05-07 03:07 35.38626 -80.94848 3943 ft 170 kts 199°
2026-05-07 03:07 35.37430 -80.94876 3676 ft 173 kts 186°
2026-05-07 03:08 35.36232 -80.94790 3449 ft 172 kts 186°
2026-05-07 03:08 35.35043 -80.94694 3223 ft 172 kts 185°
2026-05-07 03:08 35.33855 -80.94595 3010 ft 174 kts 186°
2026-05-07 03:08 35.32650 -80.94491 2784 ft 173 kts 185°
2026-05-07 03:09 35.31433 -80.94386 2579 ft 174 kts 185°
2026-05-07 03:09 35.30230 -80.94283 2344 ft 172 kts 184°
2026-05-07 03:09 35.29053 -80.94181 2113 ft 172 kts 185°
2026-05-07 03:09 35.27860 -80.94079 1891 ft 172 kts 182°
2026-05-07 03:10 35.26678 -80.93976 1677 ft 160 kts 182°
2026-05-07 03:10 35.25623 -80.93868 1442 ft 147 kts 179°
2026-05-07 03:10 35.24624 -80.93802 1210 ft 145 kts 181°
2026-05-07 03:10 35.23619 -80.93731 998 ft 144 kts 175°
2026-05-07 03:11 35.22624 -80.93632 795 ft 144 kts 178°
2026-05-07 03:11 35.21708 -80.93553 735 ft 113 kts 176°
2026-05-07 03:11 35.21098 -80.93501 735 ft 63 kts 176°
2026-05-07 03:11 35.20831 -80.93475 735 ft 15 kts 173°
2026-05-07 03:12 35.20781 -80.93392 735 ft 15 kts 92°